| time (UTC) | temp C | wind direction | speed KPH | gust KPH | rain 1hr cm | rain 24hr cm | rain mn cm | humidity % | barometer mb |
| 20260504214542 | 22 | 229 | 4.8 | 9.7 | 0.00 | 0.00 | 0.00 | 35 | 1009.2 |
| 20260504213049 | 22 | 205 | 3.2 | 11.3 | 0.00 | 0.00 | 0.00 | 35 | 1009.3 |
| 20260504211622 | 22 | 0 | 3.2 | 9.7 | 0.00 | 0.00 | 0.00 | 34 | 1009.4 |
| 20260504210051 | 22 | 238 | 1.6 | 11.3 | 0.00 | 0.00 | 0.00 | 35 | 1009.3 |
| 20260504204543 | 22 | 240 | 3.2 | 20.9 | 0.00 | 0.00 | 0.00 | 34 | 1009.4 |
| 20260504203044 | 22 | 290 | 1.6 | 14.5 | 0.00 | 0.00 | 0.00 | 35 | 1009.2 |
| 20260504201542 | 22 | 176 | 1.6 | 9.7 | 0.00 | 0.00 | 0.00 | 35 | 1009.2 |
| 20260504200052 | 22 | 184 | 3.2 | 8.0 | 0.00 | 0.00 | 0.00 | 33 | 1009.3 |
| 20260504194551 | 22 | 199 | 4.8 | 14.5 | 0.00 | 0.00 | 0.00 | 34 | 1009.4 |
| 20260504193056 | 22 | 290 | 3.2 | 9.7 | 0.00 | 0.00 | 0.00 | 33 | 1009.6 |
| 20260504191606 | 22 | 271 | 1.6 | 11.3 | 0.00 | 0.00 | 0.00 | 37 | 1009.7 |
| 20260504190054 | 22 | 220 | 1.6 | 8.0 | 0.00 | 0.00 | 0.00 | 35 | 1010.0 |
| 20260504184552 | 22 | 226 | 3.2 | 11.3 | 0.00 | 0.00 | 0.00 | 37 | 1010.4 |
| 20260504183049 | 22 | 80 | 1.6 | 6.4 | 0.00 | 0.00 | 0.00 | 35 | 1010.6 |
| 20260504181548 | 22 | 249 | 3.2 | 11.3 | 0.00 | 0.00 | 0.00 | 37 | 1010.9 |
| 20260504180046 | 22 | 252 | 3.2 | 9.7 | 0.00 | 0.00 | 0.00 | 38 | 1011.1 |
| 20260504174548 | 22 | 262 | 4.8 | 16.1 | 0.00 | 0.00 | 0.00 | 35 | 1011.2 |
| 20260504173053 | 21 | 159 | 3.2 | 11.3 | 0.00 | 0.00 | 0.00 | 38 | 1011.2 |
| 20260504171546 | 21 | 252 | 1.6 | 9.7 | 0.00 | 0.00 | 0.00 | 37 | 1011.5 |
| 20260504081546 | 7 | 0 | 0.0 | 1.6 | 0.00 | 0.00 | 0.00 | 68 | 1013.9 |
| 20260504044549 | 7 | 0 | 0.0 | 1.6 | 0.00 | 0.00 | 0.00 | 62 | 1013.5 |
| 20260504043047 | 7 | 0 | 0.0 | 0.0 | 0.00 | 0.00 | 0.00 | 63 | 1013.4 |
| 20260504041551 | 7 | 0 | 0.0 | 0.0 | 0.00 | 0.00 | 0.00 | 63 | 1013.2 |
| 20260504040111 | 7 | 0 | 0.0 | 0.0 | 0.00 | 0.00 | 0.00 | 61 | 1013.2 |
| 20260504034544 | 8 | 0 | 0.0 | 3.2 | 0.00 | 0.00 | 0.00 | 60 | 1013.1 |
| 20260504033050 | 7 | 238 | 0.0 | 1.6 | 0.00 | 0.00 | 0.00 | 62 | 1013.0 |
| 20260504031600 | 7 | 0 | 0.0 | 0.0 | 0.00 | 0.00 | 0.00 | 63 | 1013.0 |
| 20260504030049 | 7 | 0 | 0.0 | 0.0 | 0.00 | 0.00 | 0.00 | 62 | 1013.0 |
| 20260504024546 | 7 | 0 | 0.0 | 0.0 | 0.00 | 0.00 | 0.00 | 62 | 1012.8 |
| 20260504023049 | 7 | 0 | 0.0 | 0.0 | 0.00 | 0.00 | 0.00 | 62 | 1012.9 |
| 20260504021604 | 7 | 0 | 0.0 | 0.0 | 0.00 | 0.00 | 0.00 | 60 | 1012.8 |
| 20260504020106 | 7 | 0 | 0.0 | 0.0 | 0.00 | 0.00 | 0.00 | 60 | 1012.9 |
| 20260504014557 | 8 | 0 | 0.0 | 0.0 | 0.00 | 0.00 | 0.00 | 57 | 1012.7 |
| 20260504013051 | 8 | 0 | 0.0 | 0.0 | 0.00 | 0.00 | 0.00 | 55 | 1012.6 |
| 20260504011542 | 9 | 0 | 0.0 | 1.6 | 0.00 | 0.00 | 0.00 | 52 | 1012.5 |
| 20260504010054 | 10 | 0 | 0.0 | 0.0 | 0.00 | 0.00 | 0.00 | 51 | 1012.3 |
| 20260504004547 | 10 | 0 | 0.0 | 0.0 | 0.00 | 0.00 | 0.00 | 50 | 1012.1 |
| 20260504003042 | 11 | 0 | 0.0 | 0.0 | 0.00 | 0.00 | 0.00 | 47 | 1011.8 |
| 20260504001550 | 12 | 0 | 0.0 | 1.6 | 0.00 | 0.00 | 0.00 | 43 | 1011.6 |
| 20260504000051 | 12 | 246 | 0.0 | 1.6 | 0.00 | 0.00 | 0.00 | 40 | 1011.5 |
| 20260503234608 | 13 | 0 | 0.0 | 3.2 | 0.00 | 0.00 | 0.00 | 37 | 1011.2 |
| 20260503233048 | 13 | 0 | 0.0 | 1.6 | 0.00 | 0.00 | 0.00 | 37 | 1011.2 |
| 20260503231552 | 14 | 287 | 0.0 | 3.2 | 0.00 | 0.00 | 0.00 | 35 | 1011.1 |
| 20260503230051 | 14 | 0 | 1.6 | 11.3 | 0.00 | 0.00 | 0.00 | 33 | 1011.1 |
| 20260503224550 | 15 | 0 | 0.0 | 8.0 | 0.00 | 0.00 | 0.00 | 34 | 1011.0 |
| 20260503223054 | 15 | 295 | 0.0 | 11.3 | 0.00 | 0.00 | 0.00 | 33 | 1010.8 |
| 20260503221554 | 15 | 308 | 1.6 | 9.7 | 0.00 | 0.00 | 0.00 | 33 | 1010.6 |
| 20260503220051 | 15 | 312 | 1.6 | 9.7 | 0.00 | 0.00 | 0.00 | 33 | 1010.7 |